Lapse_Rate
8.6 8.6 8.5 5.9 4.5 4.3 5.6 8.6 8.7 5.7 5.2 7.2 7.7 7.7 7.7 7.2 7.2 6.3 5.5 5.7 5.9 5.9 6.7 7.4 6.8 9.0 9.8 9.4 7.5 7.5 7.6 7.7 6.9 7.0 9.4 8.4 8.3 9.8 9.8 9.7 9.7 9.5 8.2
8.1 7.9 6.7 5.2 4.7 4.1 5.8 8.0 8.4 5.7 6.8 8.0 9.6 9.4 8.0 7.8 7.1 5.9 5.2 5.4 5.4 5.8 6.5 7.6 8.5 9.5 9.9 7.6 7.0 6.4 6.8 7.3 7.6 9.2 9.3 8.7 9.2 9.7 9.9 9.8 9.7 8.5 9.6
7.7 6.1 5.6 5.1 6.1 4.7 5.4 7.7 7.6 5.6 7.6 8.9 7.2 6.8 6.4 6.1 6.0 6.0 6.3 5.2 4.9 5.3 5.4 6.6 9.5 9.4 9.2 7.3 6.7 7.1 7.2 7.3 9.0 9.2 9.1 8.4 8.1 9.1 9.7 9.6 9.9 8.6 9.6
7.9 5.6 5.2 4.7 5.4 5.3 7.1 8.7 8.1 6.8 7.6 6.1 6.7 6.3 7.3 8.2 8.7 6.8 6.2 5.5 4.6 4.8 5.4 5.6 6.4 7.3 9.6 8.4 7.7 7.9 8.8 9.4 9.1 9.1 8.4 8.2 9.1 8.5 8.3 9.5 9.4 9.5 9.6
8.1 6.0 5.6 5.3 5.3 6.2 7.4 8.1 7.5 7.1 6.2 6.8 7.0 7.4 8.1 8.0 6.4 5.7 5.0 4.9 4.1 4.2 4.8 5.2 6.1 7.2 8.8 8.4 8.9 8.3 8.7 8.7 9.6 9.4 9.4 9.2 9.4 8.8 8.8 8.3 9.0 9.6 9.8
7.8 7.2 6.4 5.5 5.4 5.6 6.3 7.5 6.8 6.8 6.1 6.8 6.9 7.4 6.9 6.3 5.8 5.3 5.4 5.6 5.5 5.1 4.7 5.0 5.7 6.5 7.4 7.4 8.0 7.8 8.1 8.9 8.9 9.7 9.4 9.4 9.1 9.0 8.9 8.7 8.8 8.9 9.5
7.8 7.4 6.0 5.1 5.5 4.8 6.1 8.1 7.4 7.6 6.5 6.3 6.6 6.8 6.7 6.2 5.9 5.5 6.3 5.7 5.2 5.5 4.8 4.9 5.2 5.8 5.9 5.9 6.3 6.8 7.4 7.6 8.2 7.9 9.5 8.3 8.3 8.1 8.7 9.0 8.9 8.8 9.4
8.0 8.0 6.5 5.3 4.8 4.4 4.9 5.8 7.5 9.0 7.0 6.5 6.5 6.7 6.6 6.8 7.0 6.8 6.6 6.5 6.1 5.7 4.3 4.2 4.3 4.5 4.8 4.7 5.0 5.6 6.0 5.5 6.2 6.4 7.2 7.5 6.7 6.8 7.6 9.3 8.9 8.6 8.9
7.9 8.0 6.6 5.4 5.0 4.5 5.2 5.1 7.0 8.8 7.2 6.5 6.5 6.3 6.1 6.5 6.5 5.8 5.6 5.5 5.3 4.4 3.9 3.8 4.0 4.1 4.1 4.3 4.6 5.3 4.6 4.9 5.4 5.1 5.6 6.0 5.7 5.8 6.2 6.8 7.7 8.9 8.2
8.0 8.2 8.0 6.5 6.3 5.5 5.4 4.5 6.2 6.9 7.5 6.5 6.2 6.1 5.9 6.0 5.5 5.1 4.8 4.7 4.4 4.1 3.7 3.9 4.0 4.0 3.9 4.1 4.6 4.7 4.5 4.7 5.0 5.3 5.1 5.3 5.5 5.6 5.7 6.1 6.7 7.3 9.0
8.2 8.5 8.2 8.0 8.1 6.7 5.0 5.2 6.2 8.7 6.3 6.3 5.8 6.1 5.9 5.7 5.3 4.9 4.6 4.6 3.9 3.7 4.2 4.3 4.2 4.3 4.4 4.3 4.9 5.0 4.9 4.8 4.5 4.6 4.8 4.6 5.1 5.7 5.7 5.7 6.3 6.5 8.3
8.3 8.6 8.5 8.5 7.5 6.1 5.8 5.2 6.2 7.7 6.7 6.7 6.4 5.8 5.4 5.4 5.3 5.1 4.6 4.3 4.2 4.0 4.3 4.5 4.8 4.5 4.6 4.6 5.0 5.3 5.0 4.9 4.7 4.5 4.6 4.6 5.2 4.9 5.1 5.6 5.5 5.6 5.8
8.4 8.6 8.4 8.3 7.7 7.3 5.4 5.4 7.1 8.5 7.8 7.8 6.2 5.5 5.3 5.4 5.2 4.9 4.6 4.6 4.3 4.4 4.4 4.9 4.8 4.7 4.5 4.8 5.2 5.3 5.1 5.2 5.0 4.9 5.0 4.8 5.0 5.1 5.3 5.6 5.7 5.6 5.7
8.1 8.4 8.4 8.2 8.1 7.6 5.9 5.8 8.2 8.8 8.7 7.9 6.8 5.8 5.3 5.4 5.2 4.9 4.9 4.9 4.7 4.4 4.6 5.2 5.3 5.0 5.0 5.2 5.3 5.3 5.0 4.8 4.7 4.2 4.5 4.8 5.2 5.2 5.1 5.5 5.3 5.5 5.9
7.9 8.1 8.2 8.0 8.0 7.4 6.5 6.8 8.9 8.5 9.0 7.8 6.6 5.9 5.5 5.7 5.2 4.9 5.2 5.2 4.9 4.9 5.2 5.4 5.4 5.1 5.4 5.4 5.3 5.3 5.0 4.8 4.2 3.9 4.2 3.7 2.1 -0.8 0.6 5.9 5.4 5.4 6.0
7.9 8.0 8.2 8.5 7.9 6.9 6.5 6.5 8.3 8.2 8.8 7.0 6.5 6.6 5.7 5.9 5.3 5.0 5.1 5.0 4.9 5.0 5.3 5.6 5.5 5.0 5.9 1.2 2.8 4.5 5.2 5.3 5.1 4.7 4.5 2.4 0.1 -0.5 -1.1 -0.4 -0.8 0.3 5.6
7.8 8.1 8.3 8.5 8.5 7.9 6.8 6.7 7.9 8.8 8.6 8.0 8.1 7.8 5.8 5.8 5.4 5.3 5.5 5.0 4.8 4.8 5.0 5.4 5.8 5.3 5.8 0.4 1.1 2.7 5.9 5.7 5.6 5.6 5.0 4.9 3.4 2.0 1.9 -1.6 -1.2 -1.1 -0.8
7.9 7.8 8.4 8.6 8.8 8.8 8.2 8.5 8.5 8.5 8.7 8.7 8.7 7.4 5.9 5.6 5.3 5.3 5.4 4.9 5.0 4.7 4.9 5.4 5.8 5.9 5.8 -1.0 -0.4 1.7 5.8 6.1 5.8 5.7 5.4 5.5 3.9 3.7 3.5 3.8 4.1 3.6 2.7
8.4 8.5 8.7 8.4 8.8 8.8 8.5 8.6 8.8 8.8 8.7 8.7 8.1 6.1 5.4 5.5 5.0 5.2 5.1 4.9 5.2 5.1 5.4 5.7 5.7 6.1 5.4 -1.9 -1.3 1.1 6.2 6.4 5.8 5.7 5.3 5.3 5.0 0.8 0.6 4.3 4.6 4.8 3.4
8.6 8.6 8.5 8.4 8.9 8.8 8.6 8.8 8.9 8.6 7.8 7.3 6.7 5.8 5.2 5.5 4.8 4.6 4.4 4.7 5.1 5.3 6.2 6.1 6.0 5.3 6.0 -2.2 -1.7 1.2 7.3 6.8 6.6 6.2 5.4 2.7 4.4 -1.4 -0.7 4.4 5.2 5.0 4.1
8.5 8.5 7.4 8.2 8.9 9.1 8.5 8.5 8.7 7.4 5.4 5.7 6.5 5.9 5.5 5.3 5.1 4.9 4.9 4.8 5.5 6.1 6.0 6.3 6.8 6.3 6.4 1.7 -1.6 -0.6 7.4 8.2 7.8 6.9 5.8 4.8 0.0 -1.1 -1.0 -0.1 5.2 4.8 3.6
8.5 8.4 5.9 5.8 7.2 9.0 8.4 8.3 8.4 8.6 6.4 5.8 6.2 5.8 5.4 5.3 5.9 5.1 4.9 5.4 5.8 6.4 6.1 7.2 8.1 7.2 6.5 3.3 -1.8 -0.6 0.5 5.1 8.3 7.2 6.6 5.4 -0.7 -1.3 -1.2 -0.4 0.1 0.7 1.4
8.5 8.6 7.6 6.3 8.2 8.1 7.8 8.3 8.2 8.3 8.6 6.6 5.5 4.9 5.0 5.5 5.3 5.1 4.9 5.3 6.1 7.1 7.4 8.5 8.6 7.7 7.8 6.1 -0.2 -1.1 0.6 0.9 6.6 8.5 6.8 2.3 -0.7 -0.8 -1.0 -0.8 -0.1 -0.8 2.7
6.6 5.6 5.2 8.4 8.5 7.9 5.3 8.7 9.1 7.9 8.8 8.2 6.7 6.1 5.1 5.3 5.5 5.7 5.8 5.8 5.9 6.6 8.1 8.7 8.6 8.0 7.6 6.8 4.2 2.8 2.8 0.9 2.8 0.5 4.2 2.8 2.1 1.7 2.9 0.9 -0.5 2.2 3.8
5.3 4.5 6.2 8.4 8.5 7.3 7.7 7.3 7.0 7.6 8.7 8.6 8.6 8.7 6.9 6.0 6.7 6.5 6.2 6.5 5.7 5.4 5.8 5.9 6.2 6.0 5.4 4.9 3.7 3.6 4.6 4.8 4.8 5.4 5.8 4.1 4.1 3.4 3.9 3.6 3.2 3.3 3.8
5.5 4.9 5.5 6.8 8.7 8.3 7.9 7.8 9.1 9.1 9.1 9.0 9.0 8.7 8.6 7.8 8.7 7.6 6.5 -3.0 1.3 -0.8 0.2 1.6 4.8 5.6 3.8 -0.1 -0.6 -0.3 0.8 1.2 -0.3 5.3 5.9 5.2 5.0 4.5 4.2 4.1 4.0 3.7 2.4
Wind_Speed
20 19 18 14 14 11 15 17 17 16 11 10 9 8 7 6 5 6 7 7 7 8 7 10 13 13 9 11 12 12 13 9 10 8 6 7 5 4 4 4 6 7 8
19 18 18 17 19 18 15 18 18 17 13 10 8 7 7 6 6 7 7 7 7 7 6 8 10 12 9 12 12 13 10 10 9 6 5 5 4 4 3 4 4 4 6
20 17 17 19 21 19 21 18 19 17 15 13 9 9 7 8 6 6 6 6 6 7 6 6 9 10 11 10 12 12 14 9 7 7 3 3 2 5 4 3 3 3 4
20 16 19 16 18 20 19 21 19 19 15 14 12 13 8 9 6 7 6 7 7 6 7 8 11 12 11 10 10 12 9 9 8 6 3 2 2 2 4 4 4 3 3
22 20 19 18 16 18 19 17 19 18 16 15 12 10 10 7 8 7 9 7 7 6 7 7 8 9 9 12 11 11 9 7 5 5 4 2 1 1 3 2 4 3 2
20 21 17 18 15 15 15 20 20 18 17 14 13 12 12 12 10 9 7 6 5 6 6 7 7 7 7 8 9 11 9 7 5 4 3 4 4 3 2 1 2 1 4
21 20 19 17 18 17 18 18 21 19 17 16 14 12 12 12 12 12 7 9 6 6 6 8 8 7 6 8 8 8 7 7 6 5 3 1 2 2 1 2 2 2 3
20 21 18 17 17 17 18 19 20 19 18 16 15 13 13 9 9 9 8 7 7 7 10 9 9 9 9 9 9 7 6 7 5 5 3 3 3 3 2 1 2 3 2
23 23 19 17 18 18 20 18 19 18 18 17 14 14 12 12 10 11 10 7 8 9 11 11 11 11 10 10 10 6 8 8 7 7 6 5 5 4 4 3 2 3 2
24 20 19 21 20 19 18 15 17 19 18 17 14 13 13 12 11 11 11 10 9 12 12 11 12 11 11 11 10 7 9 9 6 6 7 6 4 5 4 4 3 3 2
26 25 21 22 21 17 19 16 15 20 18 17 16 15 13 12 12 11 12 11 12 13 11 11 11 10 9 11 8 8 8 9 9 8 7 7 5 5 5 4 4 3 3
25 23 23 22 20 21 18 17 17 19 18 18 17 15 14 14 13 12 13 13 12 14 13 12 10 11 10 11 9 9 9 9 9 9 8 7 5 6 5 4 4 4 4
24 21 20 20 21 21 17 18 20 20 18 18 17 16 15 15 14 14 14 13 13 13 13 12 11 11 11 11 10 9 9 8 9 8 7 7 6 5 4 4 4 4 4
22 22 21 20 21 19 19 19 21 21 20 19 18 17 17 16 14 14 14 14 13 13 13 11 11 10 11 11 11 10 10 9 8 8 7 6 5 6 5 4 4 3 3
19 19 20 18 18 18 17 19 20 18 20 20 19 18 16 15 15 15 15 14 14 13 12 12 11 12 10 10 12 11 10 10 9 8 8 7 6 10 8 0 3 3 2
14 15 16 19 18 17 17 17 19 20 20 20 19 18 17 17 16 16 16 15 14 14 14 13 13 12 9 16 12 13 10 10 10 9 8 10 9 8 6 6 11 9 1
8 15 16 16 17 17 15 17 20 19 21 20 19 19 18 18 17 17 16 16 16 15 14 14 13 13 11 19 17 13 10 10 9 9 9 8 8 10 10 8 8 7 6
9 3 10 13 15 16 16 17 19 19 19 19 19 18 18 18 17 17 17 16 15 15 14 14 14 13 10 20 18 18 12 9 10 9 9 8 9 9 8 7 5 5 6
7 5 4 5 13 16 17 18 18 19 19 20 20 20 20 19 18 18 17 16 14 14 14 14 14 14 12 20 20 17 11 10 10 10 11 10 9 13 7 6 5 5 4
9 6 4 6 12 15 17 18 19 20 21 20 20 20 20 20 20 19 18 16 15 15 12 14 14 14 14 20 21 20 9 10 9 9 11 7 8 21 14 7 6 6 4
12 9 3 3 10 14 16 17 18 20 17 16 18 19 20 20 19 17 16 16 15 14 14 14 14 15 14 16 22 23 11 9 9 9 8 9 12 19 17 13 5 2 7
14 12 6 3 8 12 14 15 15 13 16 17 17 17 17 14 14 18 16 16 15 15 15 14 13 12 14 15 20 23 20 12 10 9 8 9 22 18 16 12 6 9 6
13 12 10 4 8 10 12 11 11 13 15 16 17 17 17 16 15 16 16 14 15 14 14 13 12 11 11 11 20 21 23 13 9 8 7 14 21 18 14 14 11 13 6
18 15 16 8 5 6 8 10 10 12 14 15 16 16 16 17 16 13 13 13 13 12 13 13 12 11 12 12 12 12 14 13 12 7 8 10 12 15 10 12 12 12 8
18 17 15 10 4 2 8 8 8 12 14 14 14 15 14 16 15 14 13 13 15 14 13 13 13 12 12 13 12 14 13 12 12 10 7 7 9 9 9 9 10 9 8
16 15 16 18 11 3 3 5 9 12 13 12 11 11 11 12 12 12 11 7 1 9 4 9 13 12 11 16 17 17 16 18 17 10 10 10 10 10 10 10 10 10 9
Wind_Direction
193 183 176 161 145 149 168 171 165 162 157 159 158 152 146 135 131 126 130 135 135 141 157 151 162 165 160 150 147 138 139 124 126 124 126 104 115 99 93 100 98 86 73
187 172 160 155 162 162 175 177 172 166 171 168 162 153 144 136 134 137 129 130 137 139 156 161 168 172 152 148 146 146 143 144 163 148 139 149 145 126 115 114 104 69 67
174 160 164 166 175 178 174 181 175 172 177 163 146 138 129 137 151 149 143 126 132 135 135 151 160 162 161 157 157 163 154 160 175 195 308 184 100 152 147 139 103 107 73
175 164 163 171 177 175 178 181 171 176 172 168 158 161 160 160 155 150 133 130 125 130 141 145 156 168 171 162 170 172 179 164 174 179 216 321 32 277 166 158 145 140 121
180 169 171 172 176 177 175 176 173 174 168 176 166 169 161 138 149 141 143 126 127 130 136 146 150 169 183 174 177 176 192 188 189 203 177 212 209 307 296 160 155 174 137
181 172 171 168 173 172 174 169 174 174 171 168 170 172 157 158 155 152 150 152 142 138 132 140 147 148 162 174 182 191 193 200 210 211 224 267 299 311 255 255 158 175 142
177 171 171 169 168 162 169 172 174 173 174 170 174 164 166 166 162 157 160 158 151 155 148 141 140 141 150 148 167 187 180 187 202 207 203 265 349 314 307 270 106 170 133
183 179 173 166 165 161 170 173 175 174 173 173 170 169 165 165 161 167 153 161 160 153 151 138 131 130 137 134 134 139 143 140 143 147 125 116 95 80 62 17 167 153 152
182 181 168 167 170 172 178 175 176 175 174 172 169 172 170 166 163 155 153 156 152 145 147 140 135 129 125 124 127 125 120 120 121 116 119 113 98 89 79 71 19 329 207
183 181 176 175 179 179 180 177 178 177 176 172 174 172 170 170 160 154 155 160 152 149 148 147 141 133 128 123 120 119 122 122 120 119 117 109 108 101 89 84 70 40 351
179 182 181 189 184 176 172 175 178 177 176 176 176 172 171 169 163 159 155 161 158 157 155 156 149 140 133 132 128 127 134 127 121 119 118 114 118 106 97 88 77 67 28
182 182 182 181 172 173 174 174 176 182 181 179 176 174 170 171 169 162 162 165 164 164 157 159 153 145 142 143 142 147 140 138 133 130 132 125 117 108 103 98 85 76 52
180 177 174 180 176 178 173 174 184 183 181 183 175 176 177 176 172 165 165 172 165 164 161 164 160 154 151 149 153 145 144 141 137 138 137 131 130 124 115 113 113 102 83
181 179 176 183 184 179 173 178 189 185 180 183 180 178 182 178 172 168 169 173 171 165 165 171 165 159 160 156 154 151 147 144 140 137 135 138 134 135 136 123 110 110 105
181 185 180 181 184 180 177 189 190 187 180 183 182 182 179 179 172 170 172 173 174 169 169 170 169 166 168 166 162 157 157 153 150 146 140 130 90 53 46 101 131 138 122
180 186 185 181 187 184 182 183 189 186 180 184 185 180 179 180 177 172 173 174 173 171 172 175 175 174 180 144 164 164 164 165 163 159 146 130 131 115 90 67 51 32 106
180 182 193 195 185 188 183 185 190 185 186 186 186 181 182 180 179 173 175 176 174 171 176 178 180 182 179 157 170 177 169 173 173 169 161 161 138 154 139 121 114 92 65
23 21 191 194 191 188 183 186 191 188 188 189 186 182 182 181 179 176 179 177 174 177 178 180 185 185 180 165 172 182 174 180 179 181 177 173 165 165 161 169 163 154 147
3 344 319 246 187 186 177 185 184 185 188 189 186 183 182 180 177 179 180 177 177 180 182 182 187 188 175 166 171 179 180 185 184 189 188 184 178 155 186 182 188 176 144
353 341 318 276 181 184 182 184 184 185 190 187 186 184 181 179 181 181 178 178 181 181 183 183 192 189 185 171 173 188 188 188 187 190 189 200 199 159 185 211 196 201 176
357 346 3 267 194 179 181 190 188 194 183 182 181 184 183 181 183 177 177 176 180 180 185 185 190 191 195 177 180 195 197 193 191 193 194 191 178 170 189 219 223 245 186
359 8 14 320 246 191 183 195 199 194 188 178 181 185 185 181 179 176 176 179 179 181 185 187 190 195 194 175 188 192 222 198 196 200 197 189 170 177 188 202 127 136 186
358 4 14 344 222 201 180 196 194 194 192 182 183 186 182 184 176 178 179 178 183 186 187 191 193 192 192 188 175 192 205 213 210 205 186 150 166 171 182 203 174 175 205
1 11 18 16 156 182 166 219 185 186 192 192 183 187 186 185 184 186 184 184 184 188 190 192 193 192 192 194 187 196 201 203 211 130 146 162 175 186 193 177 193 211 212
4 9 14 357 68 153 210 197 196 193 198 193 190 192 191 190 189 196 192 194 194 190 187 191 191 187 193 196 179 182 191 195 202 188 174 181 188 192 199 200 203 211 217
17 15 14 15 24 81 181 194 196 202 199 192 192 193 192 187 198 196 189 43 332 181 204 173 191 195 188 158 167 176 179 177 164 189 198 204 203 204 204 207 209 211 212